Weather History for Bentonville, AR

Change the Weather History Date:

Tuesday, January 15, 2013

  Actual Average Record
Temperature  
Mean Temperature 25 °F -  
Max Temperature 33 °F 43 °F 69 °F (1952)
Min Temperature 17 °F 21 °F -6 °F (1979)
Degree Days  
Heating Degree Days 40    
Moisture  
Dew Point 15 °F    
Average Humidity 67    
Maximum Humidity 86    
Minimum Humidity 38    
Precipitation  
Precipitation 0.00 in - - ()
Sea Level Pressure  
Sea Level Pressure 30.20 in    
Wind  
Wind Speed 5 mph (NE)    
Max Wind Speed 9 mph    
Max Gust Speed -    
Visibility 10 miles    
Events      
Averages and records for this station are not official NWS values.
T = Trace of Precipitation, MM = Missing Value Source: NWS Daily Summary

Daily Weather History Graph

Daily Weather History Graph

Search for Another Location

Airport:

Trip Planner

Search our weather history database for the weather conditions in past years. The results will help you decide how hot, cold, wet, or windy it might be!

Date:

Astronomy

Jan. 15, 2013 Rise Set
Actual Time 7:27 AM CST 5:25 PM CST
Civil Twilight 6:59 AM CST 5:53 PM CST
Nautical Twilight 6:27 AM CST 6:25 PM CST
Astronomical Twilight 5:56 AM CST 6:56 PM CST
Moon 9:42 AM CST (1/15) 10:06 PM CST (1/15)
Length of Visible Light 10h 54m
Length of Day
9h 58m
Waxing Crescent, 19% of the Moon is Illuminated
Jan 15
Waxing Crescent
Jan 18
First Quarter
Jan 26
Full
Feb 3
Last Quarter
Feb 10
New

Hourly Weather History & Observations

Time (CST) Temp. Windchill Dew Point Humidity Pressure Visibility Wind Dir Wind Speed Gust Speed Precip Events Conditions
12:35 AM 21.2 °F 13.6 °F 14.0 °F 74% 30.28 in 10.0 mi NNE 5.8 mph - N/A   Clear
12:55 AM 19.4 °F 12.8 °F 14.0 °F 80% 30.27 in 10.0 mi ENE 4.6 mph - N/A   Clear
1:15 AM 19.4 °F 14.3 °F 14.0 °F 80% 30.27 in 10.0 mi NE 3.5 mph - N/A   Clear
1:36 AM 19.4 °F 14.3 °F 14.0 °F 80% 30.26 in 10.0 mi NE 3.5 mph - N/A   Clear
1:55 AM 19.4 °F 12.8 °F 14.0 °F 80% 30.26 in 10.0 mi NE 4.6 mph - N/A   Clear
2:15 AM 19.4 °F 12.8 °F 14.0 °F 80% 30.27 in 10.0 mi NE 4.6 mph - N/A   Clear
2:35 AM 19.4 °F 11.5 °F 12.2 °F 74% 30.27 in 10.0 mi NNE 5.8 mph - N/A   Clear
2:55 AM 19.4 °F 11.5 °F 14.0 °F 80% 30.25 in 10.0 mi NE 5.8 mph - N/A   Clear
3:15 AM 19.4 °F 12.8 °F 14.0 °F 80% 30.25 in 10.0 mi NE 4.6 mph - N/A   Clear
3:35 AM 19.4 °F 12.8 °F 12.2 °F 74% 30.25 in 10.0 mi NNE 4.6 mph - N/A   Clear
3:56 AM 19.4 °F 12.8 °F 14.0 °F 80% 30.24 in 10.0 mi NE 4.6 mph - N/A   Clear
4:15 AM 19.4 °F 12.8 °F 12.2 °F 74% 30.24 in 10.0 mi NE 4.6 mph - N/A   Clear
4:55 AM 17.6 °F 12.3 °F 14.0 °F 86% 30.24 in 10.0 mi NE 3.5 mph - N/A   Clear
5:15 AM 17.6 °F 9.3 °F 12.2 °F 79% 30.24 in 10.0 mi NNE 5.8 mph - N/A   Clear
5:35 AM 17.6 °F 9.3 °F 12.2 °F 79% 30.23 in 10.0 mi NNE 5.8 mph - N/A   Clear
5:55 AM 19.4 °F 14.3 °F 14.0 °F 80% 30.23 in 10.0 mi NE 3.5 mph - N/A   Clear
6:35 AM 19.4 °F 12.8 °F 15.8 °F 86% 30.23 in 10.0 mi ENE 4.6 mph - N/A   Mostly Cloudy
6:55 AM 19.4 °F 14.3 °F 12.2 °F 74% 30.25 in 10.0 mi ENE 3.5 mph - N/A   Mostly Cloudy
7:15 AM 19.4 °F - 14.0 °F 80% 30.24 in 10.0 mi Calm Calm - N/A   Scattered Clouds
7:35 AM 21.2 °F 13.6 °F 15.8 °F 80% 30.22 in 10.0 mi ENE 5.8 mph - N/A   Clear
7:55 AM 21.2 °F 13.6 °F 15.8 °F 80% 30.21 in 10.0 mi ENE 5.8 mph - N/A   Scattered Clouds
8:15 AM 21.2 °F 14.9 °F 15.8 °F 80% 30.25 in 10.0 mi ENE 4.6 mph - N/A   Mostly Cloudy
8:55 AM 21.2 °F 13.6 °F 14.0 °F 74% 30.28 in 10.0 mi NNE 5.8 mph - N/A   Overcast
9:15 AM 23.0 °F 15.8 °F 14.0 °F 68% 30.28 in 10.0 mi East 5.8 mph - N/A   Overcast
9:55 AM 24.8 °F 16.9 °F 14.0 °F 64% 30.25 in 10.0 mi East 6.9 mph - N/A   Overcast
10:15 AM 24.8 °F 16.1 °F 14.0 °F 64% 30.26 in 10.0 mi ENE 8.1 mph - N/A   Overcast
10:35 AM 24.8 °F 16.1 °F 12.2 °F 59% 30.24 in 10.0 mi East 8.1 mph - N/A   Overcast
11:15 AM 26.6 °F 17.5 °F 12.2 °F 55% 30.22 in 10.0 mi East 9.2 mph - N/A   Overcast
11:35 AM 28.4 °F 19.7 °F 14.0 °F 55% 30.20 in 10.0 mi East 9.2 mph - N/A   Mostly Cloudy
12:15 PM 32.0 °F 24.2 °F 8.6 °F 38% 30.18 in 10.0 mi East 9.2 mph - N/A   Partly Cloudy
12:35 PM 32.0 °F 24.2 °F 12.2 °F 44% 30.16 in 10.0 mi East 9.2 mph - N/A   Clear
12:55 PM 32.0 °F 25.6 °F 12.2 °F 44% 30.16 in 10.0 mi East 6.9 mph - N/A   Clear
1:35 PM 33.8 °F 28.6 °F 14.0 °F 44% 30.14 in 10.0 mi NE 5.8 mph - N/A   Mostly Cloudy
1:55 PM 33.8 °F 28.6 °F 12.2 °F 41% 30.14 in 10.0 mi NNE 5.8 mph - N/A   Overcast
2:15 PM 33.8 °F 27.0 °F 12.2 °F 41% 30.13 in 10.0 mi NE 8.1 mph - N/A   Overcast
2:35 PM 33.8 °F 28.6 °F 14.0 °F 44% 30.12 in 10.0 mi ENE 5.8 mph - N/A   Overcast
2:55 PM 33.8 °F 27.7 °F 12.2 °F 41% 30.14 in 10.0 mi NE 6.9 mph - N/A   Overcast
3:15 PM 33.8 °F 28.6 °F 14.0 °F 44% 30.14 in 10.0 mi NE 5.8 mph - N/A   Overcast
3:35 PM 33.8 °F 27.0 °F 15.8 °F 48% 30.15 in 10.0 mi NNE 8.1 mph - N/A   Overcast
3:55 PM 33.8 °F 27.0 °F 17.6 °F 52% 30.16 in 10.0 mi NNE 8.1 mph - N/A   Overcast
4:35 PM 32.0 °F 25.6 °F 15.8 °F 51% 30.16 in 10.0 mi NNE 6.9 mph - N/A   Mostly Cloudy
4:55 PM 32.0 °F 25.6 °F 15.8 °F 51% 30.16 in 10.0 mi ENE 6.9 mph - N/A   Mostly Cloudy
5:35 PM 32.0 °F 27.5 °F 15.8 °F 51% 30.16 in 10.0 mi NNE 4.6 mph - N/A   Overcast
5:55 PM 30.2 °F 25.4 °F 15.8 °F 55% 30.16 in 10.0 mi NNE 4.6 mph - N/A   Overcast
6:15 PM 32.0 °F 28.7 °F 15.8 °F 51% 30.17 in 10.0 mi NE 3.5 mph - N/A   Overcast
6:35 PM 30.2 °F 26.7 °F 15.8 °F 55% 30.17 in 10.0 mi NE 3.5 mph - N/A   Overcast
6:55 PM 30.2 °F 23.4 °F 15.8 °F 55% 30.17 in 10.0 mi North 6.9 mph - N/A   Overcast
7:35 PM 30.2 °F 22.6 °F 19.4 °F 64% 30.16 in 10.0 mi North 8.1 mph - N/A   Overcast
7:55 PM 30.2 °F 22.6 °F 19.4 °F 64% 30.16 in 10.0 mi North 8.1 mph - N/A   Overcast
8:35 PM 28.4 °F 21.2 °F 21.2 °F 74% 30.14 in 10.0 mi North 6.9 mph - N/A   Scattered Clouds
8:55 PM 26.6 °F 21.2 °F 21.2 °F 80% 30.14 in 10.0 mi North 4.6 mph - N/A   Clear
9:15 PM 26.6 °F 20.0 °F 21.2 °F 80% 30.15 in 10.0 mi North 5.8 mph - N/A   Clear
9:36 PM 26.6 °F 19.1 °F 21.2 °F 80% 30.16 in 10.0 mi NNW 6.9 mph - N/A   Clear
9:55 PM 26.6 °F 20.0 °F 19.4 °F 74% 30.16 in 10.0 mi North 5.8 mph - N/A   Clear
10:15 PM 24.8 °F 20.5 °F 19.4 °F 80% 30.16 in 10.0 mi North 3.5 mph - N/A   Partly Cloudy
10:55 PM 24.8 °F 19.1 °F 19.4 °F 80% 30.15 in 10.0 mi North 4.6 mph - N/A   Clear
11:15 PM 24.8 °F 20.5 °F 19.4 °F 80% 30.14 in 10.0 mi NNW 3.5 mph - N/A   Clear
11:35 PM 23.0 °F - 17.6 °F 80% 30.14 in 10.0 mi Calm Calm - N/A   Clear